Guatemala City, Guatemala

9:25 AM CST on April 19, 2018 (GMT -0600)
Guatemala City

Weather History for 78641 - November, 2013

Change the Weather History Date:

Wednesday, November 13, 2013

  Actual Average Record
Temperature  
Mean Temperature 67 °F -  
Max Temperature 73 °F 71 °F - ()
Min Temperature 61 °F 56 °F - ()
Cooling Degree Days 2    
Growing Degree Days 17 (Base 50)    
Moisture  
Dew Point 60 °F    
Average Humidity 82    
Maximum Humidity 94    
Minimum Humidity 61    
Precipitation  
Precipitation 0.00 in - - ()
Sea Level Pressure  
Sea Level Pressure 30.22 in    
Wind  
Wind Speed 12 mph ()    
Max Wind Speed 18 mph    
Max Gust Speed -    
Visibility 6.2 miles    
Events Rain    
T = Trace of Precipitation, MM = Missing Value Source: Averaged Metar Reports

Daily Weather History Graph

Daily Weather History Graph

Search for Another Location

Airport or City:

Astronomy

Nov. 13, 2013 Rise Set
Actual Time 6:02 AM CST 5:30 PM CST
Civil Twilight 5:39 AM CST 5:52 PM CST
Nautical Twilight 5:13 AM CST 6:18 PM CST
Astronomical Twilight 4:48 AM CST 6:44 PM CST
Moon 2:47 PM CST (11/13) 2:31 AM CST (11/13)
Length of Visible Light 12h 13m
Length of Day
11h 28m
Waxing Gibbous, 85% of the Moon is Illuminated
Nov 13
Waxing Gibbous
Nov 17
Full
Nov 25
Last Quarter
Dec 2
New
Dec 9
First Quarter

Hourly Weather History & Observations

Time (CST) Temp. Dew Point Humidity Pressure Visibility Wind Dir Wind Speed Gust Speed Precip Events Conditions
12:00 AM 62.6 °F 60.8 °F 94% 30.27 in 6.2 mi North 13.8 mph - N/A   Scattered Clouds
1:00 AM 62.6 °F 60.8 °F 94% 30.27 in 6.2 mi North 13.8 mph - N/A   Scattered Clouds
2:00 AM 62.6 °F 60.8 °F 94% 30.24 in 6.2 mi North 11.5 mph - N/A   Scattered Clouds
3:00 AM 62.6 °F 60.8 °F 94% 30.24 in 6.2 mi NNE 9.2 mph - N/A   Partly Cloudy
4:00 AM 62.6 °F 60.8 °F 94% 30.21 in 6.2 mi NNE 11.5 mph - N/A   Scattered Clouds
5:00 AM 62.6 °F 60.8 °F 94% 30.24 in 6.2 mi NNE 11.5 mph - N/A   Mostly Cloudy
6:00 AM 62 °F 60 °F 93% 29.95 in 25 mi NNE 13.8 mph - -   Overcast
6:00 AM 62.6 °F 60.8 °F 94% 30.24 in 6.2 mi NNE 13.8 mph - N/A   Scattered Clouds
7:00 AM 62.6 °F 60.8 °F 94% 30.24 in 6.2 mi NNE 11.5 mph - N/A   Scattered Clouds
8:00 AM 66.2 °F 59.0 °F 78% 30.27 in 6.2 mi North 11.5 mph - N/A   Scattered Clouds
9:00 AM 69.8 °F 59.0 °F 68% 30.27 in 6.2 mi North 16.1 mph - N/A   Partly Cloudy
10:00 AM 71.6 °F 60.8 °F 69% 30.27 in 6.2 mi North 18.4 mph - N/A   Scattered Clouds
10:15 AM - - N/A% - 6.2 mi North 18.4 mph - N/A   Mostly Cloudy
11:00 AM 71.6 °F 59.0 °F 64% 30.27 in 6.2 mi North 18.4 mph - N/A   Scattered Clouds
12:00 PM 70 °F 60 °F 61% 29.93 in 25 mi North 16.1 mph - - Rain Light Drizzle
12:00 PM 69.8 °F 59.0 °F 68% 30.24 in 6.2 mi North 16.1 mph - N/A   Light Drizzle
1:00 PM 69.8 °F 60.8 °F 73% 30.21 in 6.2 mi North 16.1 mph - N/A   Mostly Cloudy
2:00 PM 71.6 °F 60.8 °F 69% 30.18 in 6.2 mi North 18.4 mph - N/A   Scattered Clouds
3:00 PM 73.4 °F 60.8 °F 65% 30.18 in 6.2 mi North 16.1 mph - N/A   Scattered Clouds
4:00 PM 69.8 °F 59.0 °F 68% 30.18 in 6.2 mi North 16.1 mph - N/A   Scattered Clouds
5:00 PM 68.0 °F 59.0 °F 73% 30.18 in 6.2 mi North 18.4 mph - N/A   Scattered Clouds
6:00 PM 66.2 °F 60.8 °F 83% 30.21 in 6.2 mi NNE 13.8 mph - N/A   Mostly Cloudy
7:00 PM 64.4 °F 60.8 °F 88% 30.24 in 6.2 mi North 13.8 mph - N/A   Scattered Clouds
8:00 PM 64.4 °F 60.8 °F 88% 30.27 in 6.2 mi North 13.8 mph - N/A   Scattered Clouds
9:00 PM 64.4 °F 60.8 °F 88% 30.27 in 6.2 mi North 13.8 mph - N/A   Scattered Clouds
10:00 PM 64.4 °F 60.8 °F 88% 30.27 in 6.2 mi North 11.5 mph - N/A   Scattered Clouds
11:00 PM 62.6 °F 60.8 °F 94% 30.27 in 6.2 mi North 11.5 mph - N/A   Scattered Clouds